Regional Weather Roundup
Issued by NWS

Home | Current Version | Previous Version | Graphics & Text | Print | Product List | Glossary On
Versions: 1 2 3 4 5 6 7 8 9 10 11 12 13 14 15 16 17 18 19 20 21 22 23 24 25 26 27 28 29 30 31 32 33 34 35 36 37 38 39 40 41 42 43 44 45 46 47 48 49 50
000
ASUS43 KLOT 241100
RWRIL

ILLINOIS REGIONAL WEATHER ROUNDUP
NATIONAL WEATHER SERVICE CHICAGO/ROMEOVILLE IL
600 AM CDT SUN MAY 24 2015

NOTE: "FAIR" INDICATES FEW OR NO CLOUDS BELOW 12,000 FEET WITH NO
SIGNIFICANT WEATHER AND/OR OBSTRUCTIONS TO VISIBILITY.

* THESE STATIONS ARE NOT UNDER NWS QUALITY CONTROL. THEY ALSO MAY NOT
  REPORT WEATHER SUCH AS PRECIPITATION OR FOG.

ILZ001-002-007-009-015-016-024-241200-
NORTHWEST ILLINOIS

CITY           SKY/WX    TMP DP  RH WIND       PRES   REMARKS
MOLINE         CLOUDY    60  55  83 E9        30.11F
STERLING*      CLOUDY    59  54  82 E6        30.15F
$$

ILZ003-004-008-010-011-017-018-241200-
NORTH CENTRAL ILLINOIS

CITY           SKY/WX    TMP DP  RH WIND       PRES   REMARKS
ROCKFORD       CLOUDY    63  50  62 S12       30.19S
FREEPORT*      DRIZZLE   60  53  78 S12       30.18F
$$

ILZ005-006-012>014-019>023-241200-
NORTHEAST ILLINOIS

CITY           SKY/WX    TMP DP  RH WIND       PRES   REMARKS
CHICAGO-OHARE  CLOUDY    62  49  62 SE5       30.18F
CHICAGO-MIDWAY CLOUDY    66  48  52 SE3       30.19F
AURORA         LGT RAIN  61  51  70 SW6       30.20R
WAUKEGAN       CLOUDY    55  49  80 CALM      30.18F
DUPAGE AIRPORT LGT RAIN  62  50  64 SW12      30.20R
WHEELING       CLOUDY    59  50  72 CALM      30.20F
NORTHERLY ISL    N/A     58  50  75 CALM        N/A
$$

LMZ740>746-241200-
SOUTHERN LAKE MICHIGAN

STATION/POSITION SKY/WX   TEMP    WIND        PRES    VSBY  WAVE
                          AIR SEA DIR/SP/G                  HT/PER
                          (F)     (DEG/KT/KT) (MB)    (MI)  (FT/S)
SOUTHERN BUOY              45 38  170/  8/ 10 1023.4F         0
HARRISON CRIB              66     170/  6/  6   N/A
BURNHAM HARBOR             59      CALM  /  4   N/A
CALUMET HARBOR             65     170/  4/  4   N/A
BURNS HARBOR               66     170/  5/  8 1023.4S
MICHIGAN CITY              64     130/  8/  9   N/A
MICHIGAN CITY 6N           58 54  150/  2/  4   N/A           0
ST. JOSEPH                 59 55  170/  6/  6   N/A           0
$$

ILZ025>027-034>036-040-047-049-050-058-095>099-241200-
WEST-CENTRAL ILLINOIS

CITY           SKY/WX    TMP DP  RH WIND       PRES   REMARKS
QUINCY         CLOUDY    61  57  87 E9        30.06F
$$

ILZ028>032-037-038-041>044-048-051>054-059>061-241200-
CENTRAL ILLINOIS

CITY           SKY/WX    TMP DP  RH WIND       PRES   REMARKS
DECATUR        CLOUDY    64  51  62 SE8       30.16S
PEORIA         CLOUDY    68  50  52 E3        30.14S
SPRINGFIELD    CLOUDY    65  52  62 SE9       30.12S
TAYLORVILLE    NOT AVBL
$$

ILZ033-039-045-046-055>057-062-063-241200-
EAST-CENTRAL ILLINOIS

CITY           SKY/WX    TMP DP  RH WIND       PRES   REMARKS
CHAMPAIGN      CLOUDY    63  52  67 E6        30.18R
MATTOON        CLOUDY    62  50  64 SE6       30.17R
$$

ILZ079-100>102-241200-
SOUTHWEST ILLINOIS

CITY           SKY/WX    TMP DP  RH WIND       PRES   REMARKS
BELLEVILLE     CLOUDY    63  56  78 E6        30.10S
CAHOKIA*       MOCLDY    66  54  65 SE8       30.09F
SPARTA*        MOCLDY    62  55  78 SE8       30.11S
$$

ILZ064>066-069>071-074>076-080>082-084>086-088>090-092>094-241200-
SOUTH-CENTRAL ILLINOIS

CITY           SKY/WX    TMP DP  RH WIND       PRES   REMARKS
CARBONDALE     MOCLDY    63  56  78 SE6       30.13S
MT. VERNON     CLOUDY    63  50  63 CALM      30.16S
$$

ILZ067-068-072-073-078-083-087-091-241200-
SOUTHEAST ILLINOIS

CITY           SKY/WX    TMP DP  RH WIND       PRES   REMARKS
LAWRENCEVILLE  MOCLDY    60  53  77 SE5       30.20R
ROBINSON*      CLOUDY    62  51  67 SE6       30.20R
$$

ABBREVIATIONS USED IN REMARKS
   TC - TEMPERATURE IN CELSIUS
  WCI - WIND CHILL INDEX
   HX - HEAT INDEX
  VSB - VISIBILITY
$$



USA.gov is the U.S. government's official web portal to all federal, state and local government web resources and services.